Weather Roundup
Issued by NWS Springfield, MO

Home | Current Version | Previous Version | Text Only | Print | Product List | Glossary On
Versions: 1 2 3 4 5 6 7 8 9 10 11 12 13 14 15 16 17 18 19 20 21 22 23 24 25 26 27 28 29 30 31 32 33 34 35 36 37 38 39 40 41 42 43 44 45 46 47 48 49 50
000
NZUS99 KSGF 250859
HRRSGF

HOURLY WEATHER
NATIONAL WEATHER SERVICE SPRINGFIELD MO
400 AM CDT SAT OCT 25 2014

......SGF CWA......

CITY           SKY/WX    TMP DP  RH WIND       PRES   REMARKS
SPRINGFIELD    CLEAR     58  55  90 SW5       30.06R
JOPLIN         CLEAR     64  60  87 SW10      30.06R
WEST PLAINS    CLEAR     58  56  93 W7        30.06F
ROLLA          PTCLDY    59  57  93 SW10      30.00S
OSAGE BEACH    PTCLDY    63  57  82 SW3       30.02S

......SURROUNDING SGF CWA......

CITY           SKY/WX    TMP DP  RH WIND       PRES   REMARKS
CHANUTE        CLEAR     59  58  96 S3        30.03S FOG
PARSONS        CLEAR     60  60 100 S3        30.05S FOG
COFFEYVILLE    CLEAR     60  59  96 S3        30.04R FOG
EMPORIA        CLEAR     58  58 100 CALM      30.03S FOG
SILOAM SPRINGS CLEAR     59  52  77 SW3       30.10S
HARRISON AR    CLEAR     65  60  84 W6        30.07S
NEAR YELLVILLE   N/A     54  48  82 CALM      30.06S VSB 1/2

......KANSAS AND MISSOURI......

CITY           SKY/WX    TMP DP  RH WIND       PRES   REMARKS
KANSAS CTY INT FOG       55  55 100 SW3       30.00F VSB 3/4
DOWNTOWN KC    CLEAR     60  59  96 CALM      30.00F FOG
COLUMBIA       CLEAR     61  60  97 W3        30.00S
SEDALIA        CLEAR     63  59  87 SW8       30.01S
ST JOSEPH      FOG       51  51 100 NW3       30.02S VSB 3/4
ST LOUIS       NOT AVBL
SPIRIT OF STL  PTCLDY    59  57  93 W3        29.98R
KIRKSVILLE     FOG       56  56 100 W5        30.00R VSB 1/4
WICHITA        CLEAR     59  57  93 SE5       30.03S
TOPEKA         FOG       55  55 100 S3        30.01F VSB 1
OLATHE         CLEAR     60  59  96 CALM      30.01S FOG

......TENNESSEE......

CITY           SKY/WX    TMP DP  RH WIND       PRES   REMARKS
MEMPHIS        CLEAR     58  54  86 CALM      30.08S
NASHVILLE      PTCLDY    47  45  93 CALM      30.09S

......ARKANSAS.......

CITY           SKY/WX    TMP DP  RH WIND       PRES   REMARKS
FAYETTEVILLE   CLEAR     57  57 100 SW7       30.09S
FT SMITH       CLEAR     59  56  89 NE3       30.08S
LITTLE ROCK    CLEAR     58  54  86 CALM      30.09S

......OKLAHOMA.......

CITY           SKY/WX    TMP DP  RH WIND       PRES   REMARKS
TULSA          CLEAR     65  60  84 S7        30.03S
PONCA CITY     CLEAR     61  59  93 S3        30.03S
MCALESTER      PTCLDY    66  59  78 S5        30.09S
OKLAHOMA CITY  CLEAR     61  58  90 S7        30.06S

......IOWA............

CITY           SKY/WX    TMP DP  RH WIND       PRES   REMARKS
DES MOINES     CLEAR     53  50  89 N6        29.99F
QUAD CITIES    MOCLDY    55  54  96 W6        29.94S FOG

......ILLINOIS........

CITY           SKY/WX    TMP DP  RH WIND       PRES   REMARKS
QUINCY         FOG       56  55  97 SW6       29.96S VSB 1
CHICAGO        CLOUDY    57  52  83 W9        29.90R




USA.gov is the U.S. government's official web portal to all federal, state and local government web resources and services.